Terminal Aerodrome Forecast
Issued by NWS Cleveland, OH

Home | Current Version | Previous Version | Text Only | Print | Product List | Glossary On
Versions: 1 2 3 4 5 6 7 8 9 10 11 12 13 14 15 16 17 18 19
000
FTUS41 KCLE 201400 AAB
TAFYNG
TAF AMD
KYNG 201445Z 2015/2112 16008KT P6SM BKN006
     FM201800 24010KT P6SM VCTS BKN035CB OVC150
     FM210100 24005KT P6SM BKN040 BKN150
     FM211000 VRB03KT 3SM BR SCT015=

USA.gov is the U.S. government's official web portal to all federal, state and local government web resources and services.